SL-14 DEB, 45290

Orbit data source: Space-Track

SL-14 DEB, 45290 is space debris in LEO originally from a launch on Thu, 15 Aug 1991 UTC launched from the Plesetsk Missile And Space Complex (PKMTR). Debris objects in space refer to the collection of defunct objects orbiting the Earth. Examples of debris include non-operational satellites, rocket bodies, and fragments generated from explosions, collisions, or faulty payload assembly.

Loading next visibility...
Identifier
45290, 1991-056AC
Orbit
LEO
Last TLE update
15 hours ago
Origin
Manufacturer
Unknown
Mission
Spacecraft
Bus & Motor
Unknown
Mass
Unknown
Launch date (UTC)
1991-08-15 (34 years ago)
Launch vehicle
Unknown
Launch site
Plesetsk Missile And Space Complex (PKMTR)
Object type
Payload
Rocket body
Debris
Shape & HBR
Unknown
Radar Cross Section
Small (<0.1 m²)

Expand to show TLE details & history

TLE from 15 hours ago
0 SL-14 DEB
1 45290U 91056AC  25181.78769918  .00002003  00000-0  34997-2 0  9992
2 45290  82.6341 358.2807 0107525 108.5838 252.7013 13.40636979261302
Epoch: 2025-06-30T18:54Z
TLE epoch observation values (Epoch: 2025-06-30T18:54:17.209Z)
Latitude
-0°
Longitude
155.61651°
Altitude
1,134.473 km
Speed
7.273 km/s
True Right ascension
23h 53m 07s
True Declination
0° 00' 00"
Sunlit
Object was in daylight at epoch
Visualization orbit readout
Latitude
19.53096°
Longitude
-27.4572°
Altitude
1,060.71 km
Speed
7.347 km/s
Apparent Right ascension
10h 51m 13s
Apparent Declination
-7° 54' 02"
Sunlit
Object is in daylight
Visualization observer readout
Local Sidereal Time
21:39:36
Azimuth
328.624° NNW
Elevation
-54.204°
Doppler factor
1
Orbital elements
Apogee altitude
1,184.568 km
Perigee altitude
1,023.662 km
Semi-major axis
7,482.252 km
Eccentricity
0.01075
Inclination
82.6341°
RAAN
358.2807°
Arg. of periapsis
108.5838°
True anomaly
Unknown
Mean anomaly
252.7013°
Eccentric anomaly
Unknown
Mean motion
3.35347 °/min
Orbital period
107.35 mins
BSTAR
0.0034997
Loading maneuver chart data...
Loading SW <> Apogee altitude chart data...
Loading historical data...
Loading historical data...
Loading historical data...
Loading historical data...
Loading historical data...
Loading historical data...
Loading historical data...

SL-14 DEB Visibility forecast

Observer location: undefined°, undefined°

Span
Click to sort rows by Start time (UTC) header in descending order
Start Az.
Max El. time (UTC)
Max El. Az.
Max El.
End time (UTC)
End Az.
8 mins2025-07-01 11:09:13.253Z125.513° SE2025-07-01 11:13:13.253Z86.634° E19.56°2025-07-01 11:17:13.253Z44.604° NE
11 mins2025-07-01 12:56:13.253Z204.686° SW2025-07-01 13:01:13.253Z282.38° WNW41.017°2025-07-01 13:07:13.253Z359.268° N
8 mins2025-07-01 22:23:13.253Z32.363° NE2025-07-01 22:26:13.253Z67.372° ENE21.785°2025-07-01 22:31:13.253Z120.189° SE
11 mins2025-07-02 00:10:13.253Z338.428° N2025-07-02 00:15:13.253Z262.279° W38.446°2025-07-02 00:21:13.253Z194.42° SSW
|